Location: Tel Aviv
(32.0670°N, 34.7670°E)
Time: 13:12:09
(UTC+03:00)

Transit 2A - Pass Details

Date: 25 January 2022
Orbit: 598 x 960 km, 66.7° (Epoch: 20 May)

Event Time Altitude Azimuth Distance (km) Brightness Sun altitude
Rises 18:36:47 0° 354° (N) 3,565 9.4 -18.8°
Enters shadow 18:40:45 - 19° (NNE) 2,627 8.5 -19.7°
Reaches altitude 10° 18:41:15 10° 23° (NNE) 2,547 - -19.8°
Maximum altitude 18:43:30 12° 46° (NE) 2,349 - -20.2°
Drops below altitude 10° 18:45:41 10° 69° (ENE) 2,455 - -20.7°
Sets 18:49:46 0° 99° (E) 3,288 - -21.5°
